RH
35 32 31 24 22 16 17 14 15 13 10 5 6 17 22 27 30 33 47 33 28 34 29 40 45 65 93 67 72 45 35 40 78 100 97 64 40 24 16 18 23 50 73 68 92 97 99
37 34 32 28 24 18 17 13 16 13 11 5 6 15 19 28 32 46 60 44 27 38 46 82 100 100 89 67 57 66 25 44 31 99 100 83 38 42 20 18 22 27 60 74 65 99 98
38 36 33 31 26 21 19 17 17 15 12 7 4 10 16 28 31 44 68 60 32 35 46 62 67 67 79 64 73 80 23 36 29 95 96 94 73 48 26 20 32 37 38 62 92 97 96
36 41 34 33 28 24 20 19 17 16 13 8 4 7 16 25 30 51 66 70 39 28 45 45 82 68 51 69 100 82 24 22 30 39 100 100 100 89 32 22 41 51 49 40 54 96 95
36 41 42 33 30 24 20 20 18 15 13 10 4 5 15 21 29 53 67 76 48 26 37 37 47 53 56 92 100 93 27 16 35 31 100 100 98 90 56 28 40 38 57 31 46 64 96
37 44 45 34 31 25 20 21 18 15 12 10 5 4 12 20 32 48 65 76 58 32 38 45 58 75 84 100 100 100 34 27 31 29 98 100 98 86 73 23 23 33 41 41 47 63 98
37 46 43 33 32 28 20 20 20 16 12 10 6 4 10 17 32 37 56 77 65 39 38 46 69 80 61 92 100 96 40 26 31 64 100 99 92 71 70 32 24 33 52 58 53 57 80
35 47 46 36 33 31 23 19 20 17 12 10 9 4 8 14 30 34 47 68 57 60 49 66 86 91 91 100 100 75 64 32 58 100 100 94 74 77 76 37 20 28 37 43 46 53 56
35 51 44 39 38 34 27 17 19 18 12 10 12 6 5 13 26 27 37 62 31 62 34 38 52 69 81 81 97 72 67 64 100 100 100 99 88 98 86 39 20 19 41 47 50 46 46
47 57 42 40 41 39 31 18 16 17 12 10 11 9 3 9 20 23 33 55 44 33 44 49 46 65 86 54 74 42 58 46 100 100 100 100 100 100 74 40 26 19 36 40 49 44 39
58 60 47 44 42 43 34 18 17 16 13 9 11 8 4 5 17 22 28 44 68 43 39 61 76 77 71 58 73 96 65 60 89 98 96 96 96 90 61 54 28 16 15 22 34 38 33
66 60 52 48 46 44 43 19 20 17 12 13 10 8 4 4 11 22 28 37 58 52 42 46 56 82 49 73 93 96 79 77 75 100 100 100 100 94 72 56 41 29 20 15 14 15 12
64 58 60 50 47 51 49 31 24 22 10 17 8 8 5 3 5 16 25 31 51 50 42 40 37 51 84 97 49 44 82 97 97 100 97 100 94 85 75 60 48 37 30 23 18 15 10
60 57 58 50 52 53 51 45 32 22 10 18 12 11 8 4 3 15 17 34 36 65 40 22 22 31 43 57 98 90 92 82 87 76 92 87 85 88 79 65 54 43 35 28 24 21 17
55 51 54 50 55 51 50 41 37 34 11 17 15 13 12 6 3 12 17 25 36 37 49 46 20 21 29 42 94 100 87 86 84 100 99 97 80 74 63 76 72 52 37 32 26 20 16
48 51 50 57 55 47 49 40 39 36 14 18 17 14 14 15 6 4 19 18 31 36 53 52 39 23 43 46 50 96 100 100 99 96 84 77 74 69 56 49 42 38 37 32 26 22 20
48 50 50 54 57 50 49 41 39 42 28 23 24 20 19 20 15 6 12 19 20 33 34 58 69 44 33 45 44 44 60 85 74 54 57 64 64 56 54 40 39 34 31 29 29 21 18
51 53 54 47 58 56 48 50 49 45 39 31 27 26 24 26 20 12 4 18 21 26 31 33 44 69 62 45 46 41 51 53 55 53 42 37 39 40 33 32 31 30 27 26 30 28 37
56 52 53 48 52 59 59 55 46 44 41 39 34 25 22 28 25 13 6 10 28 25 32 29 33 34 59 76 70 43 36 39 42 39 33 34 30 32 29 34 31 31 56 81 80 67 54
59 56 51 49 50 56 61 56 51 48 37 40 34 26 20 25 23 14 5 6 27 27 29 32 32 35 34 36 74 84 46 29 32 33 54 58 48 50 52 53 72 69 97 87 81 61 61
70 70 58 51 50 50 58 52 56 46 32 32 30 25 12 13 15 9 4 10 28 48 44 42 42 41 36 32 28 43 73 75 77 79 75 79 82 85 85 76 71 74 73 77 75 88 60
66 72 59 52 46 53 59 54 60 56 36 28 26 20 12 12 12 7 5 6 14 48 58 65 45 46 45 38 27 29 22 47 71 69 65 66 80 98 96 94 86 81 88 88 86 93 76
74 72 67 60 43 53 63 62 64 55 41 26 24 19 15 15 11 7 4 4 10 42 60 69 67 46 49 46 37 25 22 19 22 46 52 47 54 61 60 64 62 58 64 57 61 76 77
84 75 65 59 51 58 63 66 64 54 39 30 28 23 22 12 8 6 5 4 10 42 77 73 79 60 44 41 39 40 32 26 22 25 32 36 45 46 44 48 47 49 51 62 58 66 68
98 87 76 60 61 68 76 68 71 54 36 35 32 29 17 10 6 6 7 6 15 33 76 75 78 87 70 47 34 39 40 40 48 39 34 40 44 44 44 45 42 39 34 31 34 52 65
97 94 90 68 67 71 82 74 70 48 33 33 32 30 14 7 5 5 7 9 10 34 37 78 77 90 93 82 60 52 64 77 75 60 45 37 48 59 54 56 51 38 31 28 32 36 46
99 99 94 75 68 80 91 85 69 46 31 32 28 22 14 6 4 5 9 12 10 18 34 57 75 81 86 88 89 95 92 86 86 80 75 62 59 58 62 53 51 31 28 29 43 43 40
100 98 98 85 77 82 90 89 68 41 36 32 20 16 9 6 4 4 7 18 24 17 30 51 64 70 74 70 65 66 66 59 53 50 48 55 60 63 60 48 52 40 31 31 34 38 39
98 98 95 98 87 93 93 89 70 40 39 37 23 14 9 6 4 4 7 20 40 40 44 40 50 58 71 69 66 57 47 45 45 44 41 37 34 33 39 49 54 57 57 56 51 40 34
Wind_Speed
36 38 44 46 52 55 63 68 76 83 82 69 53 45 47 56 54 59 62 66 53 33 17 11 11 15 17 16 26 55 68 64 65 59 66 65 57 55 52 49 47 43 50 63 63 48 49
35 38 43 48 51 55 59 65 75 81 84 67 56 42 47 54 52 58 60 63 57 35 17 8 5 11 15 15 23 44 66 66 65 57 59 60 56 53 52 48 47 43 46 54 61 50 46
34 36 42 48 52 53 58 64 73 80 79 69 61 45 46 50 51 59 58 60 59 40 17 8 6 11 13 10 20 36 62 65 62 55 50 59 54 53 50 47 47 43 47 47 53 55 43
34 36 41 47 52 53 56 62 70 78 82 77 65 48 43 46 49 55 57 58 58 45 24 7 6 9 7 12 16 33 57 64 59 50 51 54 50 55 49 47 46 41 41 45 49 47 46
33 38 40 47 51 51 54 60 66 75 80 75 59 49 40 43 47 50 55 55 55 46 26 11 5 2 13 22 29 19 48 60 56 46 42 51 47 54 49 45 45 41 33 39 47 50 35
32 37 39 45 47 50 50 58 64 73 80 77 66 50 40 39 43 46 52 53 53 43 25 19 13 15 24 33 17 27 38 54 53 43 42 49 48 51 53 46 41 37 29 35 39 45 40
31 36 37 42 45 47 48 54 61 71 78 80 67 49 40 35 37 45 50 51 49 40 21 21 20 21 20 22 4 18 41 53 49 41 44 44 44 43 45 45 41 40 35 32 38 35 54
31 35 36 38 43 46 46 50 59 67 75 79 78 54 39 35 33 39 44 50 45 39 15 17 15 14 12 8 14 20 51 55 47 45 37 42 37 44 43 46 42 37 34 33 31 34 31
31 32 32 36 43 46 44 48 56 63 72 79 83 68 43 34 29 35 40 44 42 38 28 14 13 7 7 9 15 32 51 57 48 42 23 28 33 43 43 44 38 34 31 31 29 31 34
30 30 28 35 41 45 43 44 50 59 67 76 82 76 45 31 27 29 36 36 32 31 31 26 8 6 5 11 29 38 48 53 33 40 28 24 26 38 42 40 34 31 30 32 33 33 32
28 31 27 33 41 43 44 42 48 54 62 70 79 77 52 35 25 24 28 30 26 23 23 26 32 32 29 37 38 27 31 37 34 33 29 27 29 36 38 34 32 29 32 31 27 27 29
28 31 29 32 38 40 43 41 47 51 58 67 75 77 48 35 25 21 21 25 25 20 10 11 17 26 25 19 8 15 33 35 34 30 24 24 22 33 34 32 33 32 29 25 26 26 26
25 29 29 28 35 38 41 40 44 48 55 63 69 77 58 39 28 18 15 19 21 21 17 13 4 5 10 16 12 13 23 35 36 27 26 27 24 27 30 34 33 31 28 27 24 24 22
24 27 26 25 31 39 43 40 42 44 50 57 65 74 65 43 30 18 13 11 15 16 16 15 15 6 4 10 13 18 17 22 33 25 23 23 27 27 29 31 28 28 27 26 24 22 20
21 22 20 22 29 36 42 39 41 42 45 53 61 69 74 55 38 20 12 7 9 13 10 15 12 11 2 5 11 21 23 21 27 25 30 17 17 23 23 25 28 27 25 24 23 22 22
20 18 18 21 28 32 39 40 40 40 43 49 59 65 73 70 55 24 12 8 5 5 7 8 12 15 6 4 2 6 15 27 23 20 22 19 23 23 22 22 24 24 23 24 24 25 27
19 14 16 20 25 30 36 40 42 43 42 47 55 64 70 74 61 38 16 10 7 5 2 3 8 14 14 7 5 7 8 14 21 14 17 21 21 22 22 23 23 24 25 25 24 27 27
17 14 18 20 22 28 33 38 45 46 43 47 54 61 69 76 62 49 25 15 9 10 9 5 5 7 13 17 16 15 15 18 17 20 21 22 22 22 23 22 24 26 29 30 31 28 25
16 18 19 20 20 27 32 38 43 47 44 44 49 57 66 71 65 45 31 16 13 13 13 13 10 9 9 12 13 21 23 24 24 21 23 24 26 26 25 27 28 28 23 21 25 27 26
17 18 19 20 21 27 31 37 43 47 44 42 47 52 63 67 70 58 29 15 16 18 16 17 16 15 14 14 15 14 19 25 24 24 22 23 25 25 26 26 24 24 22 23 25 28 23
23 22 21 19 22 23 30 36 43 45 44 42 45 52 57 67 66 59 23 14 17 20 21 20 21 20 18 17 16 16 18 21 21 19 19 18 18 21 24 24 26 26 27 28 29 25 27
23 21 21 22 21 24 31 36 40 45 44 40 45 47 55 67 71 60 28 16 19 23 22 23 25 23 22 20 20 19 18 20 20 18 17 17 16 19 19 21 23 24 24 24 24 22 28
24 22 23 24 21 27 33 37 43 44 43 37 42 47 54 64 70 63 38 14 18 25 26 24 25 26 25 24 22 23 21 19 19 20 19 18 17 18 18 19 21 23 21 26 27 26 28
26 24 22 23 23 29 35 39 44 42 40 37 42 47 55 59 67 64 37 16 22 25 23 24 24 25 26 26 26 25 24 21 20 20 20 18 18 18 17 19 21 18 18 20 23 22 26
39 31 28 29 28 31 35 38 43 41 37 34 40 45 53 56 64 61 38 16 21 19 24 25 23 24 24 25 26 27 25 23 21 21 21 21 20 19 20 18 18 18 17 19 19 20 22
41 38 36 34 33 29 35 38 42 38 32 34 38 43 48 51 59 61 46 21 19 17 18 29 26 24 23 23 25 25 25 24 23 21 20 20 20 20 20 20 19 18 19 18 18 20 19
36 34 36 36 32 32 36 41 38 36 31 34 39 41 44 47 55 57 45 27 15 16 13 24 30 26 24 22 21 21 20 20 18 16 16 19 18 18 19 20 17 19 17 19 18 17 17
42 39 41 44 39 37 43 43 37 31 31 33 36 39 39 44 52 54 45 34 17 12 11 15 27 33 30 25 23 22 21 19 16 14 14 15 15 16 17 16 16 16 17 18 18 19 18
43 44 49 47 47 44 46 42 33 29 30 31 34 35 38 44 48 49 48 36 21 14 11 12 17 30 36 33 29 26 24 23 21 19 19 18 19 17 16 17 18 19 20 20 19 18 19
Wind_Direction
332 340 346 350 350 349 353 353 349 350 355 354 351 349 353 356 359 0 1 4 2 351 347 307 252 240 233 234 214 202 204 203 202 203 201 201 204 206 210 208 213 212 214 214 218 225 217
332 337 344 347 349 350 352 351 350 348 352 1 351 347 352 356 358 1 359 3 2 357 348 350 293 232 230 239 215 198 200 200 202 197 203 197 202 203 209 209 211 213 216 218 219 217 219
332 338 342 345 348 349 351 351 351 347 354 3 354 344 348 357 358 359 359 3 2 360 352 324 300 255 238 234 210 197 196 197 200 200 197 201 203 202 205 207 211 214 218 218 215 223 209
324 338 342 344 345 349 352 353 350 346 351 3 359 343 345 358 0 3 3 4 3 0 1 343 305 307 227 191 169 188 189 192 196 199 192 197 202 202 207 206 209 211 215 219 215 215 222
322 332 339 341 343 347 352 352 351 346 351 359 359 348 343 357 3 5 6 5 4 3 6 19 1 80 144 154 144 133 187 186 191 192 185 191 202 200 203 204 207 210 212 218 217 219 211
320 332 337 340 342 345 352 351 352 346 349 358 1 352 342 355 4 8 11 8 7 8 24 44 64 109 150 149 126 142 182 180 185 186 190 189 200 200 199 205 207 201 207 211 218 222 217
316 331 337 338 343 347 351 353 351 347 348 356 4 353 340 353 2 5 13 14 11 15 56 87 80 102 148 143 74 156 169 173 173 174 186 199 204 201 204 203 207 208 214 212 215 223 229
314 329 335 335 344 347 347 349 351 347 348 354 3 359 345 349 359 1 11 18 13 16 58 67 65 74 109 128 143 162 163 162 166 169 181 198 204 203 201 201 207 210 212 214 215 218 230
312 324 330 336 344 344 346 348 351 349 349 350 359 6 352 343 353 360 10 18 25 24 38 80 77 76 105 114 146 153 160 162 159 174 162 176 186 193 199 200 203 206 213 215 212 218 224
310 318 325 331 341 343 345 348 348 350 350 350 354 1 354 342 348 356 9 21 34 49 56 59 66 87 83 136 129 151 159 167 161 177 178 176 177 185 192 197 198 202 209 214 212 221 226
308 311 319 328 337 344 344 346 346 350 350 351 351 358 360 350 343 351 4 20 32 37 54 62 74 84 96 116 116 126 154 163 178 163 172 169 176 185 192 194 195 199 209 214 214 221 230
303 307 312 326 335 342 345 343 344 348 348 352 352 358 7 353 339 342 0 17 21 30 40 50 60 96 112 143 147 122 158 162 166 177 172 176 181 184 192 194 198 204 209 212 215 222 228
303 305 311 325 336 344 347 341 343 346 349 353 351 355 7 5 342 328 350 9 21 33 36 28 67 110 74 128 171 162 157 161 161 173 166 177 188 193 196 200 201 205 208 213 219 225 232
303 305 310 326 339 342 347 342 341 342 350 348 350 353 5 10 348 324 333 351 22 28 46 45 158 136 41 25 103 165 182 166 168 184 191 174 188 193 205 203 203 206 213 218 222 230 234
303 304 309 325 335 341 347 343 343 336 343 345 349 349 353 9 359 334 321 326 9 27 60 73 139 189 331 58 101 149 174 175 185 187 183 202 206 203 197 194 203 209 214 224 227 231 233
301 300 306 321 337 341 346 345 343 337 337 344 350 347 350 359 3 341 310 302 291 10 53 114 112 186 163 60 158 130 140 173 178 182 190 184 183 189 192 195 205 210 216 225 232 239 244
295 294 307 323 339 342 350 351 348 340 333 339 343 345 346 348 2 354 321 282 252 245 322 133 151 169 188 172 175 218 187 142 158 162 180 183 188 196 198 201 212 218 226 236 246 251 258
286 283 306 318 340 340 346 350 348 344 338 336 336 340 341 342 355 357 342 288 252 232 241 233 189 177 180 199 196 195 200 207 220 187 192 198 202 205 209 216 220 225 233 238 242 250 252
276 283 294 314 331 342 345 348 348 346 345 337 335 341 339 340 345 352 344 290 250 227 225 231 233 207 197 184 194 201 209 209 210 207 213 214 218 218 222 225 229 234 243 250 253 249 247
267 281 296 305 323 339 346 351 349 345 344 338 336 340 340 336 339 348 348 303 247 237 227 220 225 232 220 210 198 196 200 210 215 214 220 222 224 227 230 232 234 231 238 249 246 245 258
269 279 289 309 333 333 346 346 350 344 344 341 340 342 344 337 339 349 339 293 243 231 233 229 224 225 234 235 226 206 203 202 209 219 224 223 224 228 229 229 233 241 250 252 262 268 254
276 280 287 305 318 333 343 344 346 344 340 339 340 344 345 341 338 347 343 309 254 231 232 228 227 222 229 241 242 237 225 216 221 226 236 241 237 239 240 237 236 239 249 258 262 259 259
277 281 286 296 309 324 338 339 343 343 338 334 339 342 343 339 337 343 350 315 273 240 228 228 225 225 223 229 237 240 242 242 237 229 231 233 237 246 251 259 259 258 264 260 258 258 261
276 281 286 293 308 323 333 335 337 339 333 334 334 341 341 337 335 342 351 321 273 245 232 227 226 223 224 224 226 231 233 235 241 244 242 242 246 248 251 251 255 256 250 256 258 260 260
270 279 284 292 307 322 328 331 334 335 329 331 334 338 340 339 337 340 346 325 277 261 235 231 232 227 224 225 226 230 237 237 237 237 240 242 244 248 249 248 251 252 249 249 252 257 257
264 274 284 289 305 315 321 325 335 330 328 333 339 338 341 345 339 337 344 340 286 270 242 224 226 231 225 224 224 228 234 237 237 237 241 242 242 247 253 253 251 256 257 257 256 253 258
263 271 283 287 296 310 312 320 329 324 328 338 342 339 342 348 342 338 346 354 314 289 252 227 221 227 225 223 221 218 223 222 225 228 233 241 247 252 255 255 258 257 254 255 255 260 266
257 266 277 287 292 304 307 311 321 319 323 342 346 343 348 354 344 340 344 349 352 323 280 244 225 219 226 223 218 215 213 212 213 220 229 236 242 246 248 248 247 256 255 254 255 257 262
257 267 271 286 287 299 304 308 311 314 323 333 342 348 352 356 347 343 343 343 333 322 301 260 242 225 225 228 225 225 224 225 229 233 239 243 243 246 249 250 251 252 254 255 255 257 259